Theta_e
329 328 327 326 324 322 319 315 313 313 314 316 319 317 317 317 317 319 320 326 326 327 326 326 325 323 322 322 320 319 319 318 317 317 316 315 314 313 313 312 312 312 312
328 326 325 323 322 320 318 313 313 311 312 315 318 317 317 317 317 318 319 321 324 326 326 325 325 323 322 321 320 319 318 318 317 317 315 314 312 311 311 310 310 310 309
326 324 321 320 320 319 313 312 313 313 313 316 318 317 317 317 317 317 317 318 321 323 324 326 324 323 322 321 320 320 318 318 317 316 315 314 312 311 310 310 309 309 308
327 322 320 319 317 316 313 313 313 313 312 314 315 317 316 316 317 317 317 317 317 319 322 324 325 325 323 322 321 321 320 319 318 317 316 314 313 311 310 309 309 308 308
327 322 319 320 317 316 312 315 314 314 313 313 315 315 316 315 315 317 316 316 316 316 317 322 323 323 324 324 322 322 321 320 320 318 317 316 314 313 311 310 309 308 308
326 325 321 321 318 316 314 315 314 314 315 315 316 315 314 315 315 315 315 317 316 316 316 317 319 319 321 324 325 323 323 322 321 320 319 318 316 315 313 311 310 309 308
324 325 322 322 321 318 318 316 314 314 313 314 311 309 309 312 314 314 315 314 315 316 315 316 316 317 319 322 324 324 325 325 324 322 321 320 318 317 315 313 312 311 310
322 323 324 321 322 320 316 315 314 311 313 314 310 308 304 306 308 311 312 314 313 315 316 316 316 317 317 318 319 324 325 326 326 325 322 322 321 318 317 316 314 313 312
320 320 322 319 320 319 317 314 314 313 311 311 312 309 302 302 303 305 308 311 313 314 316 316 317 317 317 317 318 319 320 321 325 328 327 324 323 322 319 318 317 315 314
319 319 320 318 318 319 318 316 314 312 312 312 309 311 309 307 302 300 305 306 309 312 315 317 317 317 317 317 317 316 314 315 318 324 327 327 325 323 322 321 319 318 317
318 317 318 318 317 318 318 317 315 312 312 312 309 308 307 308 308 305 302 304 306 308 310 313 316 317 318 318 317 316 312 311 313 319 323 326 327 325 323 322 322 321 319
316 317 317 317 317 317 318 317 316 313 313 313 313 310 308 306 307 307 304 304 305 306 310 310 310 315 318 318 318 315 312 310 311 314 318 321 324 325 326 324 323 322 321
315 315 317 317 317 317 317 318 316 314 313 315 314 312 313 311 312 310 309 306 305 306 307 307 310 311 312 313 316 313 313 308 308 311 314 316 318 321 322 323 324 323 322
316 317 317 317 318 317 316 317 318 318 316 316 315 316 316 316 315 314 312 309 303 304 305 308 308 311 312 312 311 309 312 306 306 306 309 311 313 315 316 318 320 321 321
317 318 318 316 317 317 318 317 315 316 318 318 317 317 317 317 317 317 315 311 309 302 303 307 307 310 312 313 311 311 310 308 305 304 305 307 310 311 312 313 315 316 317
313 315 319 318 317 317 318 317 317 317 317 318 318 318 318 318 316 316 315 313 312 311 307 308 308 311 311 310 310 310 309 307 304 303 303 304 306 308 309 310 311 311 311
312 312 315 318 318 317 316 316 317 318 317 317 318 317 317 318 316 316 316 316 315 314 310 312 311 310 309 310 310 309 310 309 309 303 302 302 302 303 304 304 305 305 305
313 313 312 316 317 318 317 315 314 316 317 317 317 317 316 317 315 317 315 314 314 314 312 309 312 307 305 308 312 309 309 309 308 305 301 301 301 300 300 299 300 300 301
314 313 313 312 314 317 317 317 316 316 316 317 318 317 316 316 315 315 315 314 314 314 314 312 311 313 308 299 301 301 304 306 307 305 300 299 299 299 299 298 298 298 298
317 316 315 314 313 313 315 317 317 316 316 316 317 318 318 316 315 315 314 314 314 313 313 312 313 313 309 302 300 302 302 302 304 305 303 300 299 299 298 297 297 297 297
318 318 317 317 315 314 313 313 314 314 315 316 316 317 318 316 310 312 315 315 315 313 313 312 312 312 306 294 298 305 303 305 300 302 300 299 298 298 297 297 297 297 296
317 318 317 317 317 316 307 302 308 314 314 314 314 316 317 307 306 301 301 303 310 313 311 312 312 311 312 306 307 305 301 291 292 296 295 293 295 293 294 295 295 294 294
317 317 317 318 317 317 304 301 299 313 315 314 314 314 314 314 306 313 300 296 290 289 291 305 312 312 310 309 307 292 290 289 287 287 288 285 287 286 289 290 291 292 292
317 316 316 317 317 317 304 300 298 311 313 314 315 314 315 314 313 311 299 288 286 286 286 289 289 286 286 288 291 290 287 285 284 284 286 283 285 284 285 286 289 289 288
316 318 318 318 317 317 305 300 300 313 313 313 314 306 306 312 306 299 292 285 283 283 286 286 286 286 287 287 288 288 285 285 281 281 282 283 281 281 282 283 286 285 284
301 312 319 318 312 317 300 297 301 314 313 309 290 289 290 295 292 293 292 285 281 281 282 282 282 283 283 283 284 284 284 282 280 279 279 280 279 279 277 279 280 280 280
Wind_Speed
10 9 8 7 7 6 5 5 5 4 6 7 9 10 9 8 7 5 4 13 14 17 18 18 16 15 14 14 14 13 12 12 11 11 11 11 10 11 10 10 9 9 9
11 9 9 8 8 8 6 4 5 5 4 5 9 10 10 8 7 7 5 8 11 13 15 17 17 16 15 14 13 12 12 12 11 10 10 11 10 9 9 9 9 8 7
12 11 9 8 8 7 9 5 4 4 4 4 9 8 8 8 8 7 6 5 7 10 11 15 16 16 15 15 14 13 12 11 11 12 11 11 10 10 9 9 8 7 6
14 11 10 9 9 8 8 6 4 4 4 5 4 7 7 6 8 8 7 6 5 6 8 11 13 15 16 16 15 15 14 13 13 13 12 11 10 10 10 10 10 9 8
13 10 9 8 11 9 7 6 3 4 3 5 7 5 7 6 7 7 7 7 8 6 5 11 13 13 14 16 17 16 16 16 16 15 14 14 14 14 13 12 11 11 10
12 9 8 8 10 10 9 7 5 3 5 5 7 6 6 6 6 7 8 7 6 6 6 7 7 8 13 16 17 18 17 18 18 18 17 18 17 17 16 16 15 13 12
8 10 9 9 9 9 11 11 6 11 4 4 5 3 1 3 8 7 6 6 7 7 6 7 5 5 7 16 17 20 21 21 21 21 21 20 20 20 19 18 17 16 16
9 9 10 10 10 7 7 9 8 4 3 6 4 3 3 1 2 5 4 7 10 8 9 10 9 9 8 8 12 21 23 23 24 24 22 21 21 21 21 21 20 19 19
8 9 11 9 10 8 8 7 8 8 6 2 7 5 2 4 2 3 6 6 8 8 9 10 11 11 11 9 11 15 21 22 22 23 23 23 22 23 24 23 22 22 22
6 7 10 10 8 7 8 7 4 6 7 10 2 2 3 5 4 1 2 6 6 9 11 8 10 11 12 10 14 16 17 20 22 24 25 24 25 26 26 25 26 25 24
7 7 10 11 7 4 5 4 3 5 5 6 4 4 2 2 2 3 3 3 2 6 8 9 9 9 12 12 11 14 19 19 23 27 28 27 27 28 28 26 26 26 26
6 6 10 9 7 6 8 11 13 8 8 6 6 6 5 5 4 3 2 3 4 4 7 8 9 10 10 10 13 18 19 21 24 26 28 30 31 28 27 28 29 28 27
7 7 10 11 10 10 8 5 6 7 8 8 7 6 4 5 4 4 4 4 5 4 3 4 7 7 8 8 10 18 19 20 21 24 25 24 25 25 23 24 27 29 30
11 12 11 12 13 13 11 11 5 5 6 6 7 6 6 5 5 4 5 5 3 3 3 7 4 8 8 8 13 17 13 15 16 16 17 15 14 16 18 19 20 23 25
6 8 11 10 9 8 9 9 8 9 8 10 10 8 7 6 6 6 6 5 7 4 5 5 5 8 9 9 13 12 12 15 15 16 17 19 21 21 20 21 22 24 23
7 7 9 10 9 9 9 9 7 8 10 9 8 11 10 8 8 7 8 5 5 9 10 7 8 7 7 7 11 11 12 12 17 19 19 18 18 19 20 20 21 21 19
10 8 9 11 12 12 11 10 10 10 12 13 11 11 13 13 9 8 8 8 9 8 11 10 6 7 7 11 8 8 9 9 8 17 17 18 17 17 17 17 17 17 15
12 14 11 10 12 13 14 14 15 15 14 15 14 13 15 9 12 12 9 12 11 12 10 17 12 7 10 9 11 10 10 7 9 12 18 19 20 17 18 18 18 16 15
14 13 15 16 15 14 15 15 16 17 17 17 16 16 17 15 15 12 13 12 11 10 11 12 14 8 7 3 4 4 5 7 6 11 13 17 18 19 19 19 15 14 13
16 17 17 17 18 19 19 18 18 18 19 18 18 19 18 18 19 17 14 15 14 12 12 12 13 13 8 4 4 6 8 7 10 7 10 10 11 14 13 12 10 11 11
17 17 17 18 18 18 16 20 20 20 20 20 19 19 20 21 22 20 12 15 14 13 13 13 13 13 8 4 8 8 10 8 6 6 5 3 3 4 5 9 9 12 9
18 18 19 19 20 16 21 21 21 18 20 20 20 19 18 16 19 19 20 22 17 16 17 14 14 16 17 11 11 10 8 4 5 2 3 3 2 2 3 1 6 8 11
16 19 20 19 23 22 23 23 23 19 18 18 20 18 17 15 15 16 16 12 8 3 1 12 19 19 16 11 11 6 5 4 3 1 3 3 4 4 4 4 4 2 5
18 19 20 21 21 20 24 23 23 21 20 22 20 19 20 20 17 17 9 7 6 5 1 2 3 3 3 3 3 4 4 8 6 6 2 3 2 2 2 2 9 11 11
14 19 20 21 21 22 23 20 18 18 19 21 20 12 11 16 16 17 13 12 10 10 14 21 21 19 17 14 10 11 7 8 2 2 4 2 2 1 0 0 3 9 8
14 15 17 17 17 19 8 14 18 15 18 13 3 1 5 8 11 21 15 15 13 12 11 10 10 13 15 17 19 11 4 5 5 2 4 2 2 2 1 1 2 2 3
Wind_Direction
148 147 156 147 145 145 144 152 137 136 146 139 138 135 136 136 140 147 154 146 150 152 151 148 149 148 150 149 148 150 146 144 145 144 141 132 132 125 123 119 120 119 118
149 158 157 150 157 156 147 149 148 150 159 115 144 142 145 143 150 149 151 147 154 155 158 156 158 158 159 157 157 162 159 163 159 158 154 147 143 142 141 140 141 137 135
151 154 155 153 148 166 150 136 148 154 148 123 148 143 140 155 147 159 146 144 156 157 164 167 166 168 166 165 171 177 173 181 177 174 172 167 165 165 160 162 160 159 155
160 157 158 159 160 168 149 152 167 146 172 121 130 148 149 157 151 164 156 154 157 164 175 176 178 182 181 179 182 190 191 193 195 193 186 182 188 183 184 183 183 186 187
163 155 163 163 160 158 159 171 162 152 166 130 142 139 143 154 164 165 170 172 176 170 174 192 189 193 193 194 196 200 201 207 208 204 199 198 200 200 198 200 198 201 201
163 160 163 162 160 168 167 177 160 164 165 158 138 146 152 166 164 177 183 180 185 186 184 194 197 203 199 206 208 210 214 217 216 215 211 208 210 209 208 207 206 209 212
159 172 173 168 165 171 177 178 160 165 158 153 106 99 65 170 177 186 180 183 190 199 199 201 190 204 208 212 213 219 222 224 223 221 219 216 216 215 215 215 214 213 215
186 177 172 179 178 169 164 170 165 139 136 167 138 112 152 113 230 215 191 186 196 196 207 212 206 207 206 213 217 221 227 230 232 228 225 222 222 223 223 221 220 222 222
189 180 180 169 175 167 173 167 171 158 158 153 164 150 115 212 133 175 210 203 192 199 207 211 212 213 211 215 218 223 227 231 235 238 228 224 223 224 225 227 225 227 229
200 174 166 160 148 162 166 175 170 162 133 177 94 185 106 159 182 260 257 204 204 206 212 209 212 214 213 216 219 222 223 226 230 239 241 232 224 223 223 224 226 228 228
197 181 159 162 143 138 166 182 158 168 145 151 158 134 179 195 116 132 217 253 170 206 213 211 212 212 211 215 220 225 222 224 227 232 236 238 235 227 226 224 226 228 230
182 174 161 162 166 166 171 191 202 175 168 177 194 154 170 171 186 152 166 206 210 242 218 208 200 213 217 215 218 222 220 222 225 229 233 235 237 238 231 227 226 228 232
189 188 172 175 180 187 200 194 202 182 186 192 195 189 176 194 161 169 161 213 213 245 264 233 223 216 210 213 224 222 227 224 225 230 235 242 242 242 244 244 238 234 236
191 193 187 186 186 183 184 189 187 198 186 195 204 196 197 202 182 173 170 157 240 246 239 239 227 221 219 212 221 224 231 220 221 223 220 220 223 229 237 238 239 240 238
200 196 195 188 191 180 187 192 199 201 202 207 208 213 206 208 206 210 206 179 190 211 238 261 229 211 223 222 228 226 226 226 206 204 206 212 216 218 222 230 237 239 235
194 186 198 199 198 199 196 192 193 202 208 214 212 213 221 221 221 217 214 206 206 236 249 207 231 230 211 221 228 219 225 211 214 215 218 221 220 219 223 227 226 222 226
201 203 198 207 211 209 204 211 214 211 212 220 217 209 218 217 217 220 223 225 226 220 241 253 226 219 225 231 229 216 217 208 220 221 224 220 217 214 217 218 220 216 203
205 209 211 212 215 217 216 216 221 224 223 225 223 223 228 219 228 228 223 229 231 232 236 249 246 230 219 227 233 219 218 215 213 211 209 215 217 215 215 214 211 207 204
215 214 216 220 221 221 222 222 223 225 230 228 225 226 229 223 231 228 229 231 231 236 235 243 255 247 224 199 220 247 216 232 231 234 213 213 215 217 215 206 200 203 204
212 215 218 224 226 228 227 225 223 225 230 233 230 231 233 224 227 226 225 229 235 235 235 240 249 253 227 203 207 222 235 225 238 232 227 220 214 220 213 205 195 185 195
216 219 222 224 225 228 230 229 230 232 235 237 236 235 234 229 227 226 221 232 235 237 241 244 249 251 228 190 211 225 236 239 226 221 221 180 149 165 188 196 187 189 191
226 222 224 224 226 227 226 219 223 229 232 235 237 235 235 228 230 225 220 231 230 231 239 243 249 249 248 222 224 225 220 157 239 19 159 132 95 57 30 355 165 169 205
230 229 231 226 232 231 225 217 211 226 230 231 234 236 237 235 227 230 223 214 110 81 8 256 251 249 259 245 214 181 165 147 140 59 117 95 20 68 50 60 53 235 227
227 228 230 229 233 234 229 209 207 221 228 231 229 231 232 232 224 215 179 124 106 52 263 171 127 105 85 39 46 89 104 101 87 56 16 106 67 98 74 73 38 49 40
272 233 230 230 227 234 234 215 208 224 233 235 235 229 225 229 222 176 155 139 123 105 92 98 91 82 73 77 115 123 127 132 95 71 5 67 99 66 341 144 119 101 72
289 276 241 237 241 240 236 226 209 223 230 227 165 263 237 217 179 169 162 153 142 143 133 106 92 73 65 60 50 36 53 105 109 108 0 86 77 41 352 94 119 77 33